Wind_Speed
30 33 28 58 30 17 10 10 16 21 21 25 25 28 25 21 15 15 19 23 20 15 20 27 37 37 47 48 30 46 47 44 41 40 42 40 37 34 31 31 31 31 32
46 39 42 38 36 33 34 26 17 11 9 14 19 25 28 21 22 20 20 29 30 24 33 39 28 36 47 41 28 36 49 50 47 43 43 42 40 38 31 32 32 31 32
46 48 41 29 62 48 41 49 48 35 26 23 23 22 21 22 27 29 25 35 33 37 40 33 29 44 40 40 32 24 40 46 48 45 45 43 41 42 34 34 34 32 32
52 44 41 64 75 41 41 54 54 47 45 38 44 37 36 37 33 32 32 33 36 35 26 32 42 42 40 39 36 27 28 37 45 46 47 46 41 40 38 39 39 36 33
62 57 58 63 60 61 64 49 52 52 44 42 48 45 46 45 33 37 36 33 31 36 39 41 35 35 33 41 39 19 14 27 35 45 48 46 45 47 44 37 37 35 37
61 62 60 66 55 53 51 62 50 51 49 50 38 46 55 51 42 37 36 36 39 37 34 36 33 28 30 35 30 27 22 15 25 30 45 52 49 45 45 41 38 36 30
57 67 60 58 51 49 42 51 53 61 63 59 58 56 55 52 40 44 38 42 36 40 41 38 34 29 30 30 39 32 18 17 15 21 28 38 47 43 43 39 39 40 43
62 57 56 58 58 57 56 54 56 56 58 49 49 50 48 53 55 51 52 45 38 40 42 38 38 29 30 32 35 30 21 15 11 13 18 23 26 32 38 41 42 41 42
56 51 53 54 54 60 62 61 60 57 57 56 51 50 54 55 51 51 54 53 47 47 46 41 38 35 40 35 35 31 24 19 10 5 11 14 20 27 31 32 32 34 36
55 55 53 55 60 64 60 64 62 66 69 67 60 61 58 54 60 60 54 59 57 56 56 52 50 41 41 37 34 33 29 19 15 16 11 11 16 18 23 26 32 36 38
71 61 58 52 58 69 71 73 79 81 80 77 78 75 73 71 68 67 69 68 67 65 58 56 54 57 58 59 49 38 39 27 30 24 27 22 15 19 23 22 25 35 35
82 74 73 63 55 51 65 82 83 85 85 83 80 75 70 74 75 76 71 61 66 71 66 57 61 62 57 56 51 48 42 43 48 32 36 32 31 27 28 30 31 34 33
86 72 69 69 60 53 54 50 64 84 89 87 88 85 80 70 74 78 79 75 71 69 61 66 61 65 66 65 64 58 58 50 49 44 42 43 39 40 38 36 35 38 40
68 67 57 55 54 57 61 52 57 64 73 79 78 75 76 75 68 68 70 71 72 72 68 65 63 66 71 69 68 62 60 61 59 52 51 50 46 46 45 44 45 44 49
65 66 69 66 57 50 43 40 36 42 51 60 65 66 66 68 72 71 70 70 76 78 77 74 74 72 70 74 73 72 74 69 64 61 58 57 53 53 53 53 55 52 56
61 63 65 67 65 52 43 32 43 36 40 44 55 63 67 71 73 72 72 73 77 80 79 81 80 77 76 76 72 72 72 69 70 73 70 62 58 58 60 60 58 59 61
63 64 62 65 59 55 52 53 57 50 44 46 47 52 60 67 71 75 77 80 79 82 85 88 87 85 85 84 82 78 78 75 74 73 73 74 72 69 70 71 68 69 70
61 60 60 66 63 62 62 66 64 60 56 58 58 59 57 61 70 76 80 85 85 86 87 90 89 87 85 86 87 89 88 87 84 83 84 83 84 84 81 82 80 78 81
52 57 57 61 64 65 66 62 63 62 64 63 62 56 61 63 65 74 78 86 88 89 91 94 96 92 91 88 88 90 93 94 90 90 92 93 93 92 91 91 87 88 90
56 57 60 64 66 67 68 68 70 73 68 68 64 63 62 68 71 71 77 81 87 90 93 96 99 103 100 100 95 93 94 97 98 99 99 100 102 101 98 98 97 98 96
61 62 65 70 71 73 74 71 69 69 68 66 65 67 67 65 66 72 73 76 82 88 92 96 99 103 105 105 109 107 101 99 99 99 101 105 106 107 109 105 104 101 98
68 67 68 69 72 72 70 66 64 62 62 65 67 68 66 63 65 66 72 75 77 85 90 93 96 101 105 108 109 107 104 104 106 107 106 105 105 104 104 104 106 105 104
65 65 64 65 63 61 59 57 58 61 65 67 70 72 71 69 70 70 72 75 78 81 86 91 95 98 102 105 106 106 107 108 108 107 106 107 107 105 105 104 102 104 102
58 60 59 58 59 60 60 61 59 62 65 69 72 74 71 68 66 67 68 72 77 81 85 88 90 96 100 101 102 101 104 105 105 105 106 105 103 102 101 100 98 98 97
53 56 60 60 60 62 64 65 66 68 70 72 73 74 70 66 69 66 62 64 70 78 80 82 84 83 86 93 98 101 102 103 105 104 105 104 101 100 99 97 96 96 94
57 61 62 63 64 66 69 70 71 72 73 76 76 75 69 64 61 58 54 56 62 67 70 73 74 74 75 77 80 87 92 97 101 102 105 105 103 100 99 98 96 98 101
Wind_Direction
196 196 173 217 251 254 237 244 250 248 244 245 241 238 236 242 269 299 297 302 275 287 299 310 328 317 338 333 257 238 241 240 242 245 241 246 249 246 244 250 253 258 265
191 183 205 218 241 246 255 261 272 253 251 255 247 252 255 253 256 254 281 283 283 283 290 294 309 314 321 315 306 251 235 235 240 246 248 244 249 247 245 256 261 268 273
186 189 210 204 234 251 249 253 262 258 255 262 271 252 261 250 256 266 261 282 277 279 281 297 306 322 320 310 315 305 243 233 234 241 245 245 248 247 243 253 261 266 272
214 204 196 208 226 216 222 234 243 256 246 244 253 249 251 248 254 255 250 264 277 277 273 294 307 312 310 308 308 309 257 238 233 238 242 245 249 249 250 253 259 263 269
205 214 218 220 224 224 229 228 238 240 240 224 231 230 235 245 265 254 249 256 266 266 277 294 303 305 310 302 306 306 295 246 237 235 239 237 242 256 256 255 257 261 268
209 214 218 216 225 225 232 221 236 232 223 231 243 248 241 245 255 240 249 253 265 272 281 289 291 300 301 298 304 304 303 263 255 247 238 239 244 250 249 251 255 266 272
220 216 218 219 225 231 240 243 231 234 227 241 245 251 249 246 243 243 252 253 265 269 279 274 278 284 292 285 288 301 301 306 284 261 244 243 244 245 250 251 252 262 267
219 221 226 228 234 238 241 245 236 235 239 238 241 243 251 253 252 253 251 248 253 260 266 275 274 276 281 277 276 290 288 302 301 287 266 247 245 243 245 251 256 259 263
224 222 222 238 247 250 253 249 236 236 240 238 243 244 246 249 249 248 254 253 252 254 258 266 272 274 281 270 271 286 278 294 296 297 319 306 266 253 247 249 254 258 260
226 231 240 245 247 247 245 244 243 243 246 246 242 249 250 252 251 251 251 254 257 254 257 264 265 272 270 263 276 273 265 270 284 297 274 285 296 268 261 257 250 252 255
235 238 239 244 248 244 241 237 239 240 239 240 242 243 250 252 256 254 256 256 257 258 259 258 261 264 264 271 264 263 253 251 279 262 268 265 257 277 274 261 259 266 263
237 248 243 250 253 258 251 243 243 244 240 238 242 239 243 248 246 249 250 255 256 262 263 261 263 261 262 262 261 264 246 266 268 251 252 242 250 249 249 256 260 263 272
240 249 249 253 265 277 277 263 249 246 247 248 243 244 244 245 245 246 250 249 257 257 254 259 257 252 258 259 262 261 262 257 251 253 252 249 247 245 249 256 264 275 279
246 250 262 267 273 281 282 276 257 248 242 244 241 242 244 244 244 245 247 247 249 249 252 252 248 253 253 251 254 256 255 261 256 244 249 248 252 255 254 260 264 264 271
255 257 261 265 272 276 271 266 266 253 251 247 244 244 243 245 248 245 246 246 245 246 249 250 248 251 251 248 250 253 258 254 251 252 250 248 248 252 256 260 262 273 274
258 261 264 269 269 263 260 277 263 264 252 248 244 241 243 242 244 245 247 245 245 245 247 248 248 250 251 252 254 256 255 251 252 249 249 252 255 260 262 270 270 271 273
257 262 266 270 269 265 270 276 281 279 280 271 264 250 242 239 240 241 242 243 243 243 244 245 245 247 250 251 251 255 249 249 251 249 246 248 256 262 268 272 271 272 272
264 267 269 272 276 279 278 276 278 281 275 275 274 266 255 247 243 240 241 241 242 243 242 241 241 243 247 250 251 252 252 250 251 252 250 255 258 259 266 269 269 272 274
262 266 269 272 272 275 277 282 286 290 292 286 286 269 258 254 247 245 243 242 242 244 247 245 242 243 248 251 250 250 250 250 250 251 253 256 260 261 263 266 268 271 272
267 271 274 277 279 281 283 286 290 291 290 290 284 282 269 258 254 254 251 247 246 244 244 245 247 248 251 252 252 251 251 250 250 252 252 254 256 260 263 264 266 268 269
274 278 279 279 282 285 287 287 288 286 288 284 280 278 276 271 267 261 256 258 255 250 249 248 247 247 247 247 249 251 250 251 251 252 252 254 255 258 260 263 264 264 264
277 278 280 282 284 283 283 284 282 283 280 278 277 276 273 268 265 264 261 260 257 254 254 252 250 249 249 248 248 247 247 249 248 248 249 250 252 255 256 257 259 261 261
279 283 286 284 279 276 277 277 278 278 276 276 277 276 274 273 272 269 267 265 263 260 256 252 251 251 250 249 247 247 248 247 247 248 249 249 250 252 254 255 258 260 261
284 285 284 278 276 275 275 279 278 276 276 276 278 278 280 281 280 276 272 269 266 264 260 256 253 251 249 250 250 248 248 249 249 250 250 250 251 252 254 256 256 256 259
284 283 283 283 281 281 279 277 277 277 278 278 278 280 280 282 285 283 279 273 268 266 266 265 263 259 255 253 250 251 251 249 249 248 249 250 251 253 253 256 256 257 259
281 285 285 281 279 278 278 278 279 278 278 280 283 285 286 288 286 284 276 273 272 270 269 267 266 263 260 257 254 252 252 251 251 250 249 249 250 250 252 255 256 257 260
Height
10795 10811 10826 10864 10870 10865 10867 10868 10867 10868 10871 10874 10878 10880 10880 10881 10885 10891 10894 10893 10892 10891 10892 10890 10889 10885 10881 10880 10875 10876 10883 10890 10895 10900 10902 10905 10908 10911 10912 10914 10915 10916 10918
10793 10805 10832 10848 10855 10856 10862 10861 10863 10863 10863 10868 10873 10875 10876 10876 10880 10884 10888 10889 10888 10886 10885 10887 10883 10882 10879 10873 10869 10867 10869 10875 10885 10891 10894 10896 10899 10903 10904 10906 10908 10908 10909
10795 10799 10818 10823 10862 10848 10848 10855 10854 10854 10857 10861 10866 10869 10870 10869 10870 10876 10879 10881 10882 10882 10879 10880 10875 10873 10871 10869 10864 10861 10861 10866 10873 10881 10885 10888 10891 10894 10896 10899 10900 10902 10902
10783 10792 10799 10813 10820 10830 10832 10834 10842 10841 10848 10851 10855 10859 10861 10863 10864 10867 10870 10873 10874 10874 10872 10871 10868 10868 10865 10862 10857 10853 10854 10858 10864 10870 10875 10879 10883 10886 10888 10891 10893 10893 10894
10779 10785 10787 10790 10799 10809 10814 10824 10829 10831 10835 10836 10841 10846 10850 10853 10854 10855 10861 10865 10866 10865 10865 10864 10861 10862 10860 10855 10853 10848 10847 10851 10854 10859 10865 10869 10872 10876 10879 10881 10883 10885 10886
10774 10773 10777 10782 10784 10789 10799 10807 10814 10820 10824 10825 10831 10836 10841 10842 10845 10848 10851 10856 10857 10856 10857 10857 10855 10855 10854 10851 10849 10846 10843 10844 10847 10848 10852 10858 10862 10866 10869 10871 10874 10875 10877
10765 10767 10769 10775 10780 10783 10785 10792 10801 10807 10812 10817 10823 10826 10832 10833 10835 10842 10842 10845 10846 10845 10846 10849 10848 10847 10848 10847 10845 10842 10838 10835 10837 10839 10842 10846 10850 10856 10858 10861 10863 10866 10867
10758 10760 10764 10767 10772 10775 10778 10782 10790 10794 10800 10807 10811 10816 10819 10821 10824 10829 10833 10835 10835 10834 10837 10839 10840 10840 10841 10840 10839 10838 10835 10830 10829 10832 10834 10836 10841 10845 10848 10850 10852 10854 10856
10749 10752 10759 10764 10768 10771 10774 10777 10781 10783 10788 10794 10800 10804 10809 10813 10814 10817 10822 10822 10821 10821 10826 10830 10832 10833 10833 10832 10832 10831 10830 10827 10825 10824 10828 10828 10832 10837 10840 10842 10844 10844 10845
10740 10747 10753 10758 10762 10763 10766 10772 10774 10776 10779 10785 10787 10789 10795 10801 10802 10804 10806 10809 10809 10809 10813 10819 10821 10824 10826 10823 10827 10825 10826 10823 10821 10822 10824 10823 10825 10828 10829 10831 10832 10832 10834
10733 10738 10744 10750 10753 10755 10757 10757 10756 10756 10760 10765 10771 10776 10778 10787 10789 10788 10789 10793 10796 10799 10806 10807 10808 10812 10812 10815 10816 10817 10818 10817 10817 10817 10818 10817 10817 10821 10823 10823 10822 10824 10824
10720 10725 10730 10736 10737 10743 10745 10746 10744 10743 10747 10752 10756 10758 10762 10764 10771 10771 10773 10774 10778 10783 10789 10795 10797 10798 10799 10801 10803 10806 10808 10810 10809 10806 10806 10805 10808 10808 10810 10812 10813 10814 10816
10708 10713 10713 10719 10719 10719 10721 10722 10723 10725 10728 10733 10738 10743 10746 10747 10748 10752 10754 10760 10762 10764 10768 10775 10779 10783 10784 10785 10788 10792 10793 10795 10799 10795 10794 10797 10794 10797 10795 10798 10800 10803 10803
10696 10697 10699 10703 10702 10704 10706 10704 10707 10706 10706 10710 10716 10722 10725 10729 10733 10734 10735 10741 10746 10747 10747 10753 10757 10762 10765 10767 10771 10774 10776 10778 10781 10781 10780 10780 10783 10782 10784 10785 10786 10787 10789
10681 10684 10689 10692 10693 10695 10692 10692 10694 10692 10691 10693 10697 10702 10706 10710 10713 10713 10716 10721 10726 10728 10730 10733 10738 10741 10744 10749 10753 10755 10759 10761 10763 10764 10763 10763 10764 10767 10767 10768 10770 10774 10773
10672 10674 10675 10677 10680 10683 10682 10682 10684 10679 10676 10675 10677 10680 10685 10687 10689 10690 10695 10700 10705 10707 10710 10715 10716 10720 10723 10728 10731 10732 10737 10740 10741 10744 10747 10747 10747 10747 10749 10752 10754 10756 10754
10659 10661 10662 10663 10663 10666 10664 10665 10667 10664 10662 10662 10660 10660 10659 10660 10663 10666 10671 10677 10681 10684 10687 10692 10694 10697 10700 10705 10708 10713 10714 10717 10720 10723 10725 10724 10726 10728 10727 10728 10731 10732 10732
10643 10645 10645 10646 10647 10645 10644 10645 10644 10643 10644 10644 10644 10643 10641 10642 10643 10644 10647 10651 10655 10658 10660 10664 10668 10672 10675 10679 10683 10687 10690 10694 10697 10701 10703 10702 10704 10706 10707 10708 10708 10708 10707
10627 10627 10628 10630 10629 10627 10625 10624 10622 10619 10616 10616 10616 10620 10621 10621 10620 10620 10621 10625 10628 10632 10635 10638 10641 10644 10648 10652 10655 10659 10664 10667 10671 10675 10678 10679 10679 10682 10685 10685 10686 10688 10687
10612 10612 10610 10609 10607 10603 10602 10602 10598 10595 10593 10592 10594 10595 10595 10598 10599 10599 10599 10600 10602 10602 10606 10610 10613 10617 10619 10624 10629 10632 10636 10639 10642 10646 10650 10652 10653 10654 10659 10660 10661 10661 10664
10595 10594 10592 10589 10586 10583 10581 10579 10577 10573 10572 10571 10568 10569 10570 10571 10573 10574 10575 10575 10574 10574 10576 10578 10581 10584 10587 10590 10595 10600 10605 10609 10613 10616 10621 10622 10626 10630 10630 10632 10635 10637 10638
10575 10572 10569 10567 10565 10562 10559 10558 10556 10552 10549 10546 10544 10543 10543 10543 10543 10542 10543 10544 10544 10543 10545 10546 10549 10551 10553 10558 10563 10567 10572 10577 10580 10583 10588 10591 10595 10599 10602 10605 10607 10611 10612
10554 10552 10548 10544 10542 10540 10537 10535 10533 10530 10526 10523 10520 10515 10515 10515 10516 10515 10513 10511 10509 10509 10510 10511 10513 10517 10520 10524 10530 10535 10538 10541 10547 10551 10558 10560 10563 10568 10572 10576 10580 10584 10586
10531 10531 10528 10524 10522 10520 10516 10511 10508 10506 10502 10498 10494 10490 10490 10491 10490 10486 10483 10481 10478 10476 10475 10475 10477 10481 10486 10489 10494 10501 10508 10511 10516 10520 10525 10531 10536 10541 10545 10549 10552 10557 10561
10513 10509 10507 10504 10501 10495 10490 10487 10484 10483 10479 10474 10472 10470 10469 10469 10462 10458 10455 10452 10448 10444 10445 10446 10447 10451 10456 10460 10464 10467 10472 10478 10483 10490 10495 10501 10506 10512 10518 10522 10526 10530 10534
10494 10490 10486 10481 10477 10473 10467 10463 10460 10458 10454 10448 10446 10444 10442 10441 10436 10432 10430 10427 10421 10419 10417 10416 10417 10419 10422 10425 10431 10434 10439 10445 10451 10457 10465 10472 10478 10487 10493 10497 10502 10506 10510